This demonstration page uses our WeatherBlox Daily Observations layout. Learn more.

Left ArrowRight Arrow

Hourly Observations for September 28, 2017

Temp ( °F °C ) Dew Point ( °F °C ) Humidity (%) Winds ( mph kmh ) Pressure ( in mb ) Visibility ( mi km ) Precip ( " mm )
12:12 am 00:12 Clear 59 15 52 11 77 77 N 7 11 30.09 1019 10 16.0934 N/A
12:32 am 00:32 Clear 57 14 52 11 82 82 N 5 7 30.09 1019 10 16.0934 N/A
12:52 am 00:52 Clear 57 14 50 10 77 77 N 6 9 30.09 1019 10 16.0934 N/A
1:12 am 01:12 Clear 55 13 50 10 82 82 N 5 7 30.12 1020 10 16.0934 N/A
1:32 am 01:32 Clear 55 13 52 11 88 88 N 7 11 30.12 1020 10 16.0934 N/A
1:52 am 01:52 Clear 55 13 50 10 82 82 N 6 9 30.12 1020 10 16.0934 N/A
2:12 am 02:12 Clear 55 13 50 10 82 82 N 5 7 30.12 1020 10 16.0934 N/A
2:32 am 02:32 Clear 54 12 50 10 88 88 N 5 7 30.15 1021 10 16.0934 N/A
2:52 am 02:52 Clear 54 12 50 10 88 88 N 5 7 30.15 1021 10 16.0934 N/A
3:12 am 03:12 Clear 54 12 50 10 88 88 N 5 7 30.15 1021 10 16.0934 N/A
3:32 am 03:32 Clear 52 11 50 10 94 94 NNW 6 9 30.15 1021 10 16.0934 N/A
3:52 am 03:52 Clear 52 11 50 10 94 94 N 5 7 30.15 1021 10 16.0934 N/A
4:12 am 04:12 Clear 52 11 50 10 94 94 N 6 9 30.15 1021 10 16.0934 N/A
4:32 am 04:32 Clear 52 11 50 10 94 94 N 5 7 30.15 1021 10 16.0934 N/A
4:52 am 04:52 Clear 50 10 48 9 94 94 Calm 30.15 1021 10 16.0934 N/A
5:12 am 05:12 Clear 50 10 48 9 94 94 N 3 6 30.15 1021 10 16.0934 N/A
5:32 am 05:32 Clear 50 10 48 9 94 94 N 5 7 30.15 1021 10 16.0934 N/A
5:52 am 05:52 Clear 50 10 48 9 94 94 N 5 7 30.18 1022 10 16.0934 N/A
6:12 am 06:12 Clear 50 10 48 9 94 94 N 5 7 30.18 1022 10 16.0934 N/A
6:32 am 06:32 Clear 50 10 46 8 88 88 N 6 9 30.18 1022 10 16.0934 N/A
6:52 am 06:52 Clear 50 10 46 8 88 88 N 5 7 30.18 1022 10 16.0934 N/A
7:12 am 07:12 Clear 50 10 46 8 88 88 N 5 7 30.18 1022 10 16.0934 N/A
7:32 am 07:32 Clear 48 9 46 8 94 94 N 6 9 30.18 1022 10 16.0934 N/A
7:52 am 07:52 Sunny 48 9 46 8 94 94 N 5 7 30.18 1022 10 16.0934 N/A
8:12 am 08:12 Sunny 48 9 46 8 94 94 N 6 9 30.18 1022 10 16.0934 N/A
8:32 am 08:32 Sunny 50 10 46 8 88 88 N 6 9 30.18 1022 10 16.0934 N/A
8:52 am 08:52 Sunny 52 11 48 9 88 88 N 6 9 30.18 1022 10 16.0934 N/A
9:12 am 09:12 Sunny 54 12 48 9 82 82 NNE 8 13 30.21 1023 10 16.0934 N/A
9:32 am 09:32 Sunny 55 13 48 9 77 77 NNE 9 15 30.21 1023 10 16.0934 N/A
9:52 am 09:52 Sunny 55 13 48 9 77 77 NNE 9 15 30.21 1023 10 16.0934 N/A
10:12 am 10:12 Sunny 59 15 48 9 68 68 NNE 12 19 30.18 1022 10 16.0934 N/A
10:32 am 10:32 Sunny 59 15 48 9 68 68 NNE 13 20 30.18 1022 10 16.0934 N/A
10:52 am 10:52 Sunny 61 16 48 9 63 63 NNE 12 19 30.18 1022 10 16.0934 N/A
11:12 am 11:12 Sunny 63 17 46 8 56 56 NNE 12 19 30.18 1022 10 16.0934 N/A
11:32 am 11:32 Sunny 64 18 48 9 56 56 ENE 9 15 30.18 1022 10 16.0934 N/A
11:52 am 11:52 Sunny 64 18 46 8 52 52 ENE 9 15 30.18 1022 10 16.0934 N/A
12:13 pm 12:13 Sunny 64 18 46 8 52 52 NNE 8 13 30.18 1022 10 16.0934 N/A
12:32 pm 12:32 Sunny 66 19 46 8 49 49 NE 12 19 30.18 1022 10 16.0934 N/A
12:52 pm 12:52 Sunny 66 19 46 8 49 49 N 7 11 30.18 1022 10 16.0934 N/A
1:13 pm 13:13 Sunny 68 20 45 7 43 43 N 7 11 30.18 1022 10 16.0934 N/A
1:32 pm 13:32 Sunny 68 20 45 7 43 43 NNE 10 17 30.18 1022 10 16.0934 N/A
1:52 pm 13:52 Sunny 70 21 46 8 43 43 NNE 7 11 30.18 1022 10 16.0934 N/A
2:13 pm 14:13 Sunny 70 21 45 7 40 40 NE 9 15 30.15 1021 10 16.0934 N/A
2:32 pm 14:32 Sunny 70 21 50 10 50 50 N 9 15 30.15 1021 10 16.0934 N/A
2:52 pm 14:52 Sunny 70 21 50 10 50 50 N 8 13 30.15 1021 N/A N/A
3:13 pm 15:13 Sunny 70 21 50 10 50 50 N 8 13 30.15 1021 10 16.0934 N/A
3:32 pm 15:32 Sunny 72 22 50 10 47 47 N 12 19 30.15 1021 10 16.0934 N/A
3:34 pm 15:34 Sunny 72 22 50 10 47 47 undefined N/A N/A N/A N/A
3:54 pm 15:54 Sunny 72 22 52 11 50 50 NE 3 6 30.09 1019 10 16.0934 N/A
4:14 pm 16:14 Sunny 72 22 52 11 50 50 NNE 10 17 30.09 1019 10 16.0934 N/A
4:33 pm 16:33 Sunny 72 22 52 11 50 50 N 5 7 30.09 1019 10 16.0934 N/A
4:54 pm 16:54 Sunny 72 22 52 11 50 50 NNE 9 15 30.09 1019 10 16.0934 N/A
5:14 pm 17:14 Sunny 72 22 52 11 50 50 N 10 17 30.09 1019 10 16.0934 N/A
5:33 pm 17:33 Sunny 72 22 52 11 50 50 N 8 13 30.09 1019 10 16.0934 N/A
5:54 pm 17:54 Sunny 72 22 52 11 50 50 N 9 15 30.09 1019 10 16.0934 N/A
6:14 pm 18:14 Sunny 70 21 52 11 53 53 N 8 13 30.12 1020 10 16.0934 N/A
6:33 pm 18:33 Sunny 70 21 52 11 53 53 N 8 13 30.12 1020 10 16.0934 N/A
6:54 pm 18:54 Sunny 68 20 54 12 60 60 N 8 13 30.12 1020 10 16.0934 N/A
7:14 pm 19:14 Sunny 64 18 52 11 64 64 NNE 9 15 30.12 1020 10 16.0934 N/A
7:33 pm 19:33 Clear 63 17 52 11 68 68 NNE 7 11 30.12 1020 10 16.0934 N/A
7:54 pm 19:54 Clear 61 16 52 11 72 72 NNE 6 9 30.12 1020 10 16.0934 N/A
8:14 pm 20:14 Clear 57 14 50 10 77 77 NNE 5 7 30.12 1020 10 16.0934 N/A
8:33 pm 20:33 Clear 55 13 50 10 82 82 NE 5 7 30.12 1020 10 16.0934 N/A
8:54 pm 20:54 Clear 54 12 50 10 88 88 NNE 3 6 30.18 1022 10 16.0934 N/A
9:14 pm 21:14 Clear 52 11 50 10 94 94 Calm 30.18 1022 10 16.0934 N/A
9:34 pm 21:34 Clear 52 11 50 10 94 94 Calm 30.18 1022 10 16.0934 N/A
9:54 pm 21:54 Clear 50 10 50 10 100 100 Calm 30.18 1022 10 16.0934 N/A
10:13 pm 22:13 Clear 50 10 50 10 100 100 Calm 30.18 1022 10 16.0934 N/A
10:34 pm 22:34 Clear 50 10 50 10 100 100 Calm 30.18 1022 10 16.0934 N/A
10:53 pm 22:53 Clear 50 10 48 9 94 94 Calm 30.18 1022 10 16.0934 N/A
11:14 pm 23:14 Clear 48 9 48 9 100 100 Calm 30.18 1022 10 16.0934 N/A
11:34 pm 23:34 Clear 48 9 48 9 100 100 Calm 30.18 1022 10 16.0934 N/A
11:54 pm 23:54 Clear 48 9 48 9 100 100 Calm 30.18 1022 10 16.0934 N/A

Powered by AerisWeather